Back to catalog

CZ-6A DEB

AlivePO
NORAD 60627·DEBRIS·🇨🇳 China

Launched Aug 6, 2024 from Taiyuan Satellite Launch Center

Loading…

Next Passes (next 24 hours)

TLE

FreshSource: Space-Track

Epoch: Sep 14, 2026, 02:54 UTC

1 60627U 24140AC  26257.12147684 -.00000280  00000-0 -30210-3 0  9998
2 60627  88.0630 204.7165 0539252 234.6333 120.3282 13.25546372101629

Track CZ-6A DEB in real time with AllMySat

Download on the App Store